Location: *
(46.1866°S, 178.5290°W)
Time: 12:33:08
(UTC+00:00)

Cosmos 967 Rocket - Visible Passes

Search period start: 21 September 2021 00:00
Search period end: 01 October 2021 00:00
Orbit: 947 x 991 km, 65.8° (Epoch: 20 September)

Date Brightness Start Highest point End Pass type
(mag) Time Alt. Az. Time Alt. Az. Time Alt. Az.
21 Sep 5.4 15:09:08 25° NNE 15:12:20 42° ENE 15:18:18 10° SE visible
21 Sep 5.0 16:53:44 10° WNW 16:59:52 45° SW 17:06:00 10° SSE visible
22 Sep 6.8 13:48:00 13° ENE 13:49:17 13° ENE 13:52:11 10° ESE visible
22 Sep 4.6 15:32:32 31° NNW 15:35:45 74° ENE 15:42:08 10° SE visible
23 Sep 6.0 14:11:19 24° ENE 14:12:20 26° ENE 14:17:25 10° SE visible
23 Sep 4.5 15:55:51 28° NW 15:59:20 69° SW 16:05:44 10° SSE visible
24 Sep 5.2 14:34:33 42° NE 14:35:33 45° ENE 14:41:36 10° SE visible
24 Sep 5.0 16:19:04 20° WNW 16:23:09 43° SW 16:29:14 10° SSE visible
25 Sep 6.7 13:13:12 14° E 13:13:12 14° E 13:15:45 10° ESE visible
25 Sep 4.5 14:57:43 59° N 14:58:58 78° ENE 15:05:23 10° SE visible
25 Sep 5.6 16:42:13 12° W 16:47:10 29° SW 16:52:39 10° SSE visible
26 Sep 6.0 13:36:18 27° E 13:36:18 27° E 13:40:45 10° SE visible
26 Sep 4.5 15:20:48 46° WNW 15:22:35 65° SW 15:28:58 10° SSE visible
27 Sep 5.2 13:59:20 47° E 13:59:20 47° E 14:04:53 10° SE visible
27 Sep 5.1 15:43:50 29° W 15:46:26 41° SW 15:52:27 10° SSE visible
28 Sep 6.8 12:37:50 13° E 12:37:50 13° E 12:39:16 10° ESE visible
28 Sep 4.4 14:22:20 82° E 14:22:20 82° E 14:28:38 10° SE visible
28 Sep 5.7 16:06:49 17° W 16:10:29 27° SW 16:15:51 10° SSE visible
29 Sep 6.2 13:00:47 24° E 13:00:47 24° E 13:04:05 10° SE visible
29 Sep 4.5 14:45:17 59° WSW 14:45:51 61° SW 14:52:12 10° SSE visible
29 Sep 6.2 16:30:10 10° WSW 16:34:44 20° SSW 16:39:17 10° SSE visible
30 Sep 5.5 13:23:41 41° ESE 13:23:41 41° ESE 13:28:09 10° SE visible
30 Sep 5.2 15:08:11 34° WSW 15:09:43 39° SW 15:15:40 10° SSE visible
30 Sep 6.5 16:55:32 10° SW 16:59:10 15° SSW 17:02:47 10° SSE visible
